Flag for Finland Weather past 2 weeks in Lappeenranta, Finland

Now
75 °F

Passing clouds.


Feels Like: 78 °F
Forecast: 66 / 83 °F
Wind: 9 mph from West

Location: Lappeenranta

Current Time: Jul 25, 2014 at 10:03:34 AM

Latest Report: Jul 25, 2014 at 9:20 AM


Visibility: N/A

Pressure: 30.18 "Hg

Humidity: 57%

Dew point: 59 °F

Location of LappeenrantaLocation

Historic Weather in Lappeenranta — Graph

°F

Lappeenranta temperature yesterday

Maximum temperature yesterday: 81 °F (at 1:50 PM)
Minimum temperature yesterday: 66 °F (at 12:20 AM)
Average temperature yesterday: 73 °F

Past Weeks' High & Low Weather Summary

 TemperatureHumidityPressure
High84 °F (Jul 23, 2:50 PM)100% (Jul 15, 4:50 AM)30.30 "Hg (Jul 15, 4:50 AM)
Low48 °F (Jul 11, 12:20 AM)32% (Jul 23, 4:20 PM)29.92 "Hg (Jul 13, 6:20 PM)
Average68 °F66%30.10 "Hg
* Reported Jul 10 8:20 AM — Jul 25 8:50 AM, Lappeenranta, Weather by CustomWeather, © 2014

Note: Actual official high and low records may vary slightly from our data, if they occured in-between our weather recording intervals... More about our weather records

Advertising

Lappeenranta weather history for previous 24 hours

 ConditionsComfort  
Time TempWeatherWind HumidityBarometerVisibility
8:50 AM
Jul 25
75 °FSunny.9 mph61%30.18 "Hg10 mi
8:20 AM72 °FPassing clouds.8 mph69%30.18 "HgN/A
7:50 AM70 °FPassing clouds.5 mph69%30.18 "HgN/A
7:20 AM66 °FPassing clouds.5 mph78%30.18 "HgN/A
6:50 AM64 °FSunny.5 mph83%30.18 "Hg10 mi
6:20 AM64 °FSunny.3 mph83%30.18 "Hg10 mi
5:50 AM64 °FSunny.3 mph83%30.18 "Hg10 mi
5:20 AM61 °FClear.1 mph94%30.18 "Hg10 mi
4:50 AM61 °FClear.No wind94%30.18 "Hg10 mi
4:20 AM61 °FClear.1 mph94%30.18 "Hg10 mi
3:50 AM61 °FClear.1 mph94%30.18 "Hg10 mi
3:20 AM61 °FClear.No wind94%30.18 "Hg10 mi
2:50 AM63 °FClear.1 mph88%30.18 "Hg10 mi
2:20 AM63 °FClear.2 mph88%30.18 "Hg10 mi
1:50 AM64 °FClear.No wind83%30.18 "Hg10 mi
1:20 AM64 °FClear.1 mph83%30.18 "Hg10 mi
12:50 AM64 °FClear.2 mph88%30.18 "Hg10 mi
12:20 AM66 °FClear.2 mph83%30.18 "Hg10 mi
11:50 PM
Jul 24
68 °FClear.2 mph78%30.18 "Hg10 mi
11:20 PM72 °FPassing clouds.8 mph65%30.15 "HgN/A
10:50 PM72 °FPassing clouds.5 mph65%30.18 "HgN/A
10:20 PM73 °FSunny.2 mph61%30.15 "Hg10 mi
9:50 PM73 °FSunny.2 mph61%30.15 "Hg10 mi
9:20 PM77 °FSunny.3 mph54%30.15 "Hg10 mi
8:50 PM77 °FSunny.2 mph54%30.15 "Hg10 mi
8:20 PM79 °FSunny.3 mph48%30.15 "Hg10 mi
7:50 PM79 °FPassing clouds.5 mph48%30.15 "HgN/A
7:20 PM81 °FPassing clouds.5 mph45%30.15 "HgN/A
6:50 PM81 °FPassing clouds.5 mph45%30.15 "HgN/A
6:20 PM81 °FSunny.3 mph45%30.15 "Hg10 mi
5:50 PM81 °FSunny.3 mph45%30.15 "Hg10 mi
5:20 PM81 °FSunny.3 mph42%30.15 "Hg10 mi
4:50 PM81 °FPassing clouds.5 mph42%30.15 "HgN/A
4:20 PM81 °FPassing clouds.5 mph45%30.18 "HgN/A
3:50 PM81 °FPassing clouds.6 mph42%30.18 "HgN/A
3:20 PM81 °FPassing clouds.6 mph48%30.18 "HgN/A
2:50 PM77 °FSunny.6 mph54%30.18 "Hg10 mi
2:20 PM79 °FSunny.3 mph48%30.18 "Hg10 mi
1:50 PM81 °FPassing clouds.6 mph45%30.18 "HgN/A
1:20 PM79 °FSunny.2 mph48%30.18 "Hg10 mi
12:50 PM79 °FSunny.5 mph48%30.18 "Hg10 mi
12:20 PM79 °FSunny.2 mph51%30.18 "Hg10 mi
11:50 AM77 °FSunny.3 mph54%30.18 "Hg10 mi
11:20 AM77 °FSunny.5 mph54%30.18 "Hg10 mi
10:50 AM77 °FPassing clouds.5 mph57%30.18 "HgN/A
10:20 AM73 °FSunny.3 mph69%30.18 "Hg10 mi
Weather by CustomWeather, © 2014

See weather overviewHow to use our weather pages